Regional Weather Roundup
Issued by NWS

Home | Current Version | Previous Version | Graphics & Text | Print | Product List | Glossary On
Versions: 1 2 3 4 5 6 7 8 9 10 11 12 13 14 15 16 17 18 19 20 21 22 23 24 25 26 27 28 29 30 31 32 33 34 35 36 37 38 39 40 41 42 43 44 45 46 47 48 49 50
000
ASUS43 KIND 071509
RWRIN

WEATHER ROUNDUP FOR INDIANA
NATIONAL WEATHER SERVICE INDIANAPOLIS IN
1100 AM EDT TUE JUL 07 2015

NOTE: "FAIR" INDICATES FEW OR NO CLOUDS BELOW 12,000 FEET WITH NO
SIGNIFICANT WEATHER AND/OR OBSTRUCTIONS TO VISIBILITY.

* - STATION DOES NOT REPORT WEATHER SUCH AS PRECIPITATION OR FOG.

+ - STATION NOT QUALITY CONTROLLED BY THE NATIONAL WEATHER SERVICE.
    USE DATA WITH CAUTION...ESPECIALLY DEWPOINT AND RELATIVE
    HUMIDITY OBSERVATIONS.

INZ001>003-010>013-019-020-071600-
NORTHWEST INDIANA

CITY           SKY/WX    TMP DP  RH WIND       PRES   REMARKS
GARY /AIRPORT/ CLOUDY   N/A N/A N/A N12G23    29.99R
KNOX *+        CLOUDY    59  59 100 N15       29.93R
LA PORTE +     DRIZZLE   62  62 100 N16G22    29.94S
MICHIGAN CITY+ DRIZZLE   59  59 100 N15       29.96S
MONTICELLO +   CLOUDY    65  65  99 N13       29.91R
RENSSELAER +   DRIZZLE   61  59  94 N13       29.94R
VALPARAISO     LGT RAIN  59  57  93 N16G24    29.95S

$$

LMZ046-743>745-071600-
SOUTHERN LAKE MICHIGAN

STATION/POSITION TIME  TEMP    WIND        PRES    WAVE
                       AIR SEA DIR/SP/G            HT
                 (UTC) (F)     (DEG/KT/KT) (MB)    (FT)
BURNS HARBOR     1500   58     360/ 17/ 23 1015.2S
MICHIGAN CITY    1500   59     340/ 24/ 28   N/A
5NW MICH CITY    1500   59 65  360/ 16/ 19   N/A     7

$$

INZ004-005-014>016-021>024-071600-
NORTH CENTRAL INDIANA

CITY           SKY/WX    TMP DP  RH WIND       PRES   REMARKS
ELKHART        LGT RAIN  63  63 100 NW10      29.92R
GOSHEN         LGT RAIN  68  66  93 NW14      29.89R
LOGANSPORT +   CLOUDY    72  68  88 W5        29.92R
PERU/GRISSOM   CLOUDY    73  71  94 SW7       29.90R
ROCHESTER +    LGT RAIN  70  70 100 W12       29.91R
SOUTH BEND     CLOUDY    62  60  93 NW15      29.93R
WARSAW +       LGT RAIN  72  70  94 W7        29.89S

$$

INZ006>009-017-018-025>027-071600-
NORTHEAST INDIANA

CITY           SKY/WX    TMP DP  RH WIND       PRES   REMARKS
ANGOLA *+      PTSUNNY   72  64  78 W6        29.88S
AUBURN +       LGT RAIN  72  70  94 CALM      29.90S
FORT WAYNE     LGT RAIN  72  69  90 SW7       29.91R
HUNTINGTON +   DRIZZLE   71  70  97 S3        29.90S

$$

INZ028-029-035-036-043>045-051>053-071600-
WEST CENTRAL INDIANA

CITY           SKY/WX    TMP DP  RH WIND       PRES   REMARKS
CRAWFORDSVL +  RAIN      73  70  91 W3        29.91S
GREENCASTLE +  CLOUDY    73  70  88 S5        29.91F HAZE
LAFAYETTE      LGT RAIN  73  71  93 SW3       29.90R
TERRE HAUTE    LGT RAIN  77  73  87 SW9       29.91S

$$

INZ030>032-037>040-046>048-054>057-064-065-071600-
CENTRAL INDIANA

CITY           SKY/WX    TMP DP  RH WIND       PRES   REMARKS
ANDERSON       CLOUDY    77  68  73 S17G23    29.94R
CP ATTERBURY + CLOUDY    77  72  83 S12       29.95S
COLUMBUS       MOSUNNY   75  72  88 SW16      29.96S
FISHERS *+     CLOUDY    75  73  94 S9        29.92S
FRANKFORT +    CLOUDY   N/A N/A N/A S5        29.93R
GREENWOOD *+   CLOUDY    77  70  78 S8        29.94S
INDIANAPOLIS   CLOUDY    77  72  84 S14       29.92S
-EAGLE CREEK   CLOUDY    78  73  84 S10       29.91S
KOKOMO *+      CLOUDY    72  68  88 S6        29.91R
MARION +       LGT RAIN  69  69  98 S6        29.92F
MT COMFORT *+  CLOUDY    77 N/A N/A S8        29.93S
SHELBYVILLE    CLOUDY    77  72  84 S18       29.94S
ZIONSVILLE +   LGT RAIN  76  72  85 SW9       29.92S

$$

INZ033-034-041-042-049-050-058-059-071600-
EAST CENTRAL INDIANA

CITY           SKY/WX    TMP DP  RH WIND       PRES   REMARKS
MUNCIE         CLOUDY    78  72  81 S10       29.92S

$$

INZ060-061-067>069-081>083-085>088-071600-
SOUTHWEST INDIANA

CITY           SKY/WX    TMP DP  RH WIND       PRES   REMARKS
EVANSVILLE     CLOUDY    76  73  91 SW13      29.97S
HUNTINGBURG *+ CLOUDY    73  70  88 S8        29.98S
WASHINGTON +   CLOUDY    76  71  83 S9        29.94F

$$

INZ062-063-066-070>080-084-089>092-071600-
SOUTH CENTRAL AND SOUTHEAST INDIANA

CITY           SKY/WX    TMP DP  RH WIND       PRES   REMARKS
BLOOMINGTON    CLOUDY    75  73  93 S8        29.94F
MADISON *+     CLOUDY    75  70  83 SW10G16   30.02S
NORTH VERNON + CLOUDY    75  75 100 S10       29.99R
SEYMOUR +      HVY RAIN  75  73  94 SW13      29.97S

$$




USA.gov is the U.S. government's official web portal to all federal, state and local government web resources and services.